User: anonymous   Login
Location: Unspecified
(0.0000°N, 0.0000°E)
Time: 23:59:23
(UTC+00:00)
Language:

STARLINK-36983 - Orbit

View from above orbital plane
View from above orbital plane
View from above satellite
View from above satellite

Ground track
Ground track

The orbit is defined by the following mean orbital elements,

1 68323U          26145.58335647 +.00000000 +00000-0 +71232-3 0 00002
2 68323  53.1603 346.9418 0001371 115.5794 359.6912 15.35377879    01
Epoch (UTC): 25 May 2026 14:00:01
Eccentricity: 0.0001371
inclination: 53.1603°
perigee height: 459 km
apogee height: 461 km
right ascension of ascending node: 346.9418°
argument of perigee: 115.5794°
revolutions per day: 15.35377879
mean anomaly at epoch: 359.6912°

The dashed part of the orbit path shows where the satellite is in the earth's shadow,  

DLR